Regional Weather Roundup
Issued by NWS

Home | Current Version | Previous Version | Graphics & Text | Print | Product List | Glossary On
Versions: 1 2 3 4 5 6 7 8 9 10 11 12 13 14 15 16 17 18 19 20 21 22 23 24 25 26 27 28 29 30 31 32 33 34 35 36 37 38 39 40 41 42 43 44 45 46 47 48 49 50
000
ASUS43 KLOT 281910
RWRIL

ILLINOIS REGIONAL WEATHER ROUNDUP
NATIONAL WEATHER SERVICE CHICAGO/ROMEOVILLE IL
200 PM CDT THU AUG 28 2014

NOTE: "FAIR" INDICATES FEW OR NO CLOUDS BELOW 12,000 FEET WITH NO
SIGNIFICANT WEATHER AND/OR OBSTRUCTIONS TO VISIBILITY.

* THESE STATIONS ARE NOT UNDER NWS QUALITY CONTROL. THEY ALSO MAY NOT
  REPORT WEATHER SUCH AS PRECIPITATION OR FOG.

ILZ001-002-007-009-015-016-024-282000-
NORTHWEST ILLINOIS

CITY           SKY/WX    TMP DP  RH WIND       PRES   REMARKS
MOLINE         CLOUDY    71  66  84 E13       30.04F
STERLING*      CLOUDY    75  63  64 SE6       30.07F
SAVANNA*       CLOUDY    76  61  60 E6        30.06F
$$

ILZ003-004-008-010-011-017-018-282000-
NORTH CENTRAL ILLINOIS

CITY           SKY/WX    TMP DP  RH WIND       PRES   REMARKS
ROCKFORD       CLOUDY    77  59  53 E10       30.10F
FREEPORT*      PTSUNNY   73  64  75 SE6       30.11F
ROCHELLE*      PTSUNNY   77  59  53 E6        30.09F
DE KALB*       PTSUNNY   75  57  52 E9        30.10F
PERU*          CLOUDY    78  64  60 E7        30.07F HX  80
$$

ILZ005-006-012>014-019>023-282000-
NORTHEAST ILLINOIS

CITY           SKY/WX    TMP DP  RH WIND       PRES   REMARKS
CHICAGO-OHARE  PTSUNNY   77  52  41 NE7       30.09F
CHICAGO-MIDWAY PTSUNNY   77  59  53 E6        30.09F
AURORA         MOSUNNY   80  58  46 E9        30.08F HX  80
LANSING*       MOSUNNY   77  62  59 E6        30.09F
JOLIET*        MOSUNNY   78  58  49 E5        30.09F
WAUKEGAN       SUNNY     71  53  52 E10       30.12F
DUPAGE AIRPORT MOSUNNY   79  55  43 SE7       30.09F
KANKAKEE*      MOSUNNY   79  65  63 E7        30.08F HX  81
WHEELING       PTSUNNY   74  54  49 E8        30.12F
MORRIS*        MOSUNNY   80  65  59 E8        30.06F HX  81
ROMEOVILLE*    MOSUNNY   78  58  49 E5        30.08F HX  80
NORTHERLY ISL    N/A     71  58  63 N9          N/A
$$

LMZ740>746-282000-
SOUTHERN LAKE MICHIGAN

STATION/POSITION SKY/WX   TEMP    WIND        PRES    VSBY  WAVE
                          AIR SEA DIR/SP/G                  HT/PER
                          (F)     (DEG/KT/KT) (MB)    (MI)  (FT/S)
SOUTHERN BUOY              67 69   70/ 10/ 10 1020.5F
WAUKEGAN HARBOR            68      70/ 10/ 12   N/A
HARRISON CRIB              68      50/ 10/ 12   N/A
BURNHAM HARBOR             71      40/ 10       N/A
CALUMET HARBOR             70      10/ 10/ 13 1018.1F
MICHIGAN CITY              69     360/ 10/ 12   N/A
MICHIGAN CITY 6N           70 73   30/ 10/ 12   N/A           2/ 4
ST. JOSEPH                 70 73  360/ 10/ 12   N/A           1/ 3
$$

ILZ025>027-034>036-040-047-049-050-058-095>099-282000-
WEST-CENTRAL ILLINOIS

CITY           SKY/WX    TMP DP  RH WIND       PRES   REMARKS
QUINCY         PTSUNNY   85  73  67 SE10      29.99F HX  91
GALESBURG*     PTSUNNY   79  70  72 E7        30.02F HX  82
MACOMB*        MOSUNNY   82  72  73 SE10      30.02F HX  86
JACKSONVILLE*  SUNNY     89  75  64 S8        30.01F HX  98
PITTSFIELD*    MOSUNNY   88  73  61 SE7       30.01F HX  95
$$

ILZ028>032-037-038-041>044-048-051>054-059>061-282000-
CENTRAL ILLINOIS

CITY           SKY/WX    TMP DP  RH WIND       PRES   REMARKS
PONTIAC        MOSUNNY   81  68  65 SE3       30.06F HX  83
DECATUR        SUNNY     84  73  69 SE9       30.04F HX  90
PEORIA         PTSUNNY   81  68  64 E9        30.03F HX  84
LACON*         CLOUDY    78  64  60 E8        30.04F HX  80
LINCOLN*       MOSUNNY   85  71  62 E6        29.99F HX  90
SPRINGFIELD    MOSUNNY   86  72  62 S5        30.01F HX  92
TAYLORVILLE    NOT AVBL
$$

ILZ033-039-045-046-055>057-062-063-282000-
EAST-CENTRAL ILLINOIS

CITY           SKY/WX    TMP DP  RH WIND       PRES   REMARKS
CHAMPAIGN      MOSUNNY   82  68  62 E8        30.06F HX  85
DANVILLE*      SUNNY     81  65  58 CALM      30.04F HX  83
RANTOUL*       SUNNY     84  63  49 E6        30.07F HX  85
MATTOON        SUNNY     84  71  65 SE7       30.04F HX  89
PARIS*         SUNNY     82  67  60 CALM      30.06F HX  84
$$

ILZ079-100>102-282000-
SOUTHWEST ILLINOIS

CITY           SKY/WX    TMP DP  RH WIND       PRES   REMARKS
ALTON          MOSUNNY   88  72  58 S5        30.01F HX  94
BELLEVILLE     MOSUNNY   88  77  69 E7        30.00F HX 100
SPARTA*        MOSUNNY   87  75  68 CALM      30.01F HX  96
$$

ILZ064>066-069>071-074>076-080>082-084>086-088>090-092>094-282000-
SOUTH-CENTRAL ILLINOIS

CITY           SKY/WX    TMP DP  RH WIND       PRES   REMARKS
CARBONDALE     PTSUNNY   83  71  67 S12       30.01S THUNDER HX  87
CAIRO*         SUNNY     93  73  52 CALM      29.97F HX 101
EFFINGHAM*     MOSUNNY   88  69  53 CALM      30.03F HX  91
MT. VERNON     MOSUNNY   90  75  62 NE5       30.01F HX 100
SALEM*         PTSUNNY   88  76  67 CALM      30.02F HX  98
METROPOLIS*    MOSUNNY   92  73  53 CALM      29.98F HX  99
$$

ILZ067-068-072-073-078-083-087-091-282000-
SOUTHEAST ILLINOIS

CITY           SKY/WX    TMP DP  RH WIND       PRES   REMARKS
LAWRENCEVILLE  PTSUNNY   88  73  61 E5        30.03F HX  95
FLORA*         SUNNY     86  72  62 CALM      30.02F HX  92
FAIRFIELD*     MOSUNNY   90  79  70 CALM      30.00F HX 105
HARRISBURG*    MOSUNNY   88  74  65 E3        30.01F HX  96
ROBINSON*      SUNNY     89  73  59 CALM      30.04F HX  97
CARMI*         MOSUNNY   85  77  76 SE3       30.00F HX  96
$$

ABBREVIATIONS USED IN REMARKS
   TC - TEMPERATURE IN CELSIUS
  WCI - WIND CHILL INDEX
   HX - HEAT INDEX
  VSB - VISIBILITY
$$



USA.gov is the U.S. government's official web portal to all federal, state and local government web resources and services.